Time[GMT],air_temperature[C](-3m),wind_speed[m/s](-4m),wind_gust[m/s](-4m),visibility[m](-3m),barometric_pressure[millibars](-3m),wind_direction[degrees_true](-4m)
2006-02-23 13:00,2.7,5.7,6.7,2953,1014.05,142.10
2006-02-23 14:00,2.9,6.2,7.3,2908,1013.69,146.90
2006-02-23 15:00,2.9,5.8,6.9,2883,1013.21,151.60
2006-02-23 16:00,2.9,6.1,7.3,2816,1012.61,148.90
2006-02-23 17:00,2.9,5.9,7.2,2900,1011.71,156.80
2006-02-23 18:00,2.8,6.3,7.8,2908,1010.63,157.50
2006-02-23 19:00,2.9,5.4,6.7,2888,1009.97,169.10
2006-02-23 20:00,2.7,5.5,6.5,2930,1009.61,190.00
2006-02-23 21:00,2.7,4.9,6.3,2950,1009.19,186.20
2006-02-23 22:00,2.7,4.7,5.6,2929,1009.01,192.70
2006-02-23 23:00,2.7,5.1,6.0,2944,1008.95,191.80
2006-02-24 00:00,1.8,5.5,7.1,2741,1008.65,175.90
2006-02-24 01:00,2.2,5.5,6.4,2916,1008.17,173.70
2006-02-24 02:00,2.5,5.6,6.6,2933,1007.63,179.40
2006-02-24 03:00,2.6,6.3,8.1,2925,1007.63,207.80
2006-02-24 04:00,2.4,5.5,6.7,2930,1007.21,202.50
2006-02-24 05:00,2.9,5.8,6.9,2884,1006.73,221.20
2006-02-24 06:00,2.4,6.4,7.6,2853,1006.13,221.90
2006-02-24 07:00,2.2,5.6,6.6,2863,1005.11,195.80
2006-02-24 08:00,2.5,4.6,7.0,2261,1004.51,212.60
2006-02-24 09:00,1.6,3.6,4.6,2472,1004.03,239.30
2006-02-24 10:00,0.8,2.0,3.0,2431,1003.73,256.20
2006-02-24 11:00,1.6,3.8,5.3,2807,1003.55,289.70
2006-02-24 12:00,1.7,2.1,3.1,2828,1003.01,252.40
2006-02-24 13:00,1.6,5.5,6.2,2538,1002.83,247.90
2006-02-24 14:00,1.1,4.3,4.9,1705,1002.35,263.60
2006-02-24 15:00,1.5,5.7,7.1,2644,1001.75,262.10
2006-02-24 16:00,1.5,6.8,7.8,2754,1001.51,315.40
2006-02-24 17:00,1.1,7.5,9.2,2606,1001.39,33.84
2006-02-24 18:00,0.3,8.9,10.5,2197,1002.17,349.33
2006-02-24 19:00,-0.7,9.6,11.6,2965,1002.59,333.40
2006-02-24 20:00,-1.0,11.6,14.5,2963,1003.67,337.20
2006-02-24 21:00,-0.8,12.8,15.8,2965,1005.23,340.80
2006-02-24 22:00,-0.8,11.4,14.6,2965,1007.03,334.90
2006-02-24 23:00,-0.6,11.4,14.8,2965,1008.83,334.80
2006-02-25 00:00,-0.4,13.0,14.7,2965,1010.39,329.10
2006-02-25 01:00,-0.9,12.9,15.9,2965,1011.65,324.50
2006-02-25 02:00,-1.7,11.7,15.1,2965,1013.03,323.70
2006-02-25 03:00,-2.8,13.2,15.8,2965,1014.89,317.30
2006-02-25 04:00,-3.6,13.0,15.9,2965,1016.09,318.30
2006-02-25 05:00,-4.0,13.4,15.9,2964,1017.47,318.20
2006-02-25 06:00,-4.8,11.6,14.2,2965,1018.85,316.00
2006-02-25 07:00,-5.6,13.6,16.6,2964,1019.57,317.50
2006-02-25 08:00,-6.3,11.4,13.7,2965,1020.29,313.70
2006-02-25 09:00,-7.1,9.8,12.0,2965,1020.53,317.50
2006-02-25 10:00,-7.9,9.6,11.6,2965,1021.07,317.80
2006-02-25 11:00,-8.6,9.6,11.4,2965,1021.19,318.70
2006-02-25 12:00,-9.0,7.3,9.5,2419,1021.31,326.90
2006-02-25 13:00,-9.2,8.6,10.9,2610,1021.55,323.60
2006-02-25 14:00,-9.5,5.3,7.9,2925,1021.13,320.40
2006-02-25 15:00,-8.9,5.8,7.7,2918,1020.23,329.80
2006-02-25 16:00,-8.4,4.5,6.4,2962,1020.17,311.60
2006-02-25 17:00,-8.1,3.9,6.1,2965,1019.03,322.00
2006-02-25 18:00,-7.3,2.8,4.5,2952,1017.59,290.30
2006-02-25 19:00,-6.4,3.1,5.4,2964,1017.29,280.90
2006-02-25 20:00,-5.8,2.7,4.7,2966,1015.97,308.00
2006-02-25 21:00,-5.4,2.2,3.7,2963,1014.77,330.50
2006-02-25 22:00,-5.2,3.6,5.5,2965,1014.83,309.60
2006-02-25 23:00,-5.5,3.0,4.7,2965,1014.35,343.60
2006-02-26 00:00,-5.4,5.4,7.2,2965,1013.39,356.12
2006-02-26 01:00,-5.7,6.0,8.1,2965,1012.31,15.67
2006-02-26 02:00,-5.6,6.5,8.6,2965,1012.19,6.73
2006-02-26 03:00,-5.7,7.7,10.5,2965,1011.77,14.60
2006-02-26 04:00,-5.9,8.4,10.0,2965,1011.71,10.90
2006-02-26 05:00,-6.5,9.9,11.8,2965,1011.35,0.89
2006-02-26 06:00,-7.1,10.7,13.4,2964,1011.05,351.66
2006-02-26 07:00,-8.0,11.0,13.3,2951,1011.41,2.02
2006-02-26 08:00,-8.4,12.5,15.6,2905,1011.47,353.43
2006-02-26 09:00,-8.4,12.9,15.7,2828,1011.47,337.00
2006-02-26 10:00,-9.1,12.0,15.4,2948,1011.59,342.30
2006-02-26 11:00,-9.2,11.9,15.2,2927,1011.71,341.20
2006-02-26 12:00,-9.8,11.1,14.0,1101,1011.89,327.20
2006-02-26 13:00,,,,,,
2006-02-26 14:00,-9.4,9.8,12.1, 682,1011.47,325.40
2006-02-26 15:00,-9.0,7.9,10.5,2328,1011.17,325.80
2006-02-26 16:00,-7.9,7.8,10.9,2755,1010.63,311.50
2006-02-26 17:00,-7.2,9.2,13.1,2544,1009.91,293.10
2006-02-26 18:00,-6.4,9.7,12.7,2873,1009.49,289.70
2006-02-26 19:00,-5.5,11.2,14.3,2941,1008.83,298.60
2006-02-26 20:00,-5.5,11.5,13.7,2928,1008.59,295.00
2006-02-26 21:00,-5.7,12.3,15.3,2933,1008.53,296.40
2006-02-26 22:00,-5.6,12.4,14.9,2519,1008.29,293.40
2006-02-26 23:00,-6.6,11.9,14.2,2960,1008.35,308.30
2006-02-27 00:00,-7.8,13.3,17.7,2927,1008.83,307.70
2006-02-27 01:00,-8.6,14.8,18.7,2887,1009.01,305.80
2006-02-27 02:00,-9.5,11.9,15.1,2954,1008.89,312.90
2006-02-27 03:00,-10.2,12.1,14.9,2955,1008.77,309.70
2006-02-27 04:00,-10.4,12.2,15.7,2923,1008.77,309.90
2006-02-27 05:00,-11.2,12.7,17.2,2885,1008.53,312.90
2006-02-27 06:00,-11.8,11.2,14.9,2654,1008.35,310.40
2006-02-27 07:00,-12.2,12.1,16.0,2410,1007.87,310.80
2006-02-27 08:00,-12.5,11.7,15.8,1817,1007.33,304.90
2006-02-27 09:00,-12.8,12.9,17.0, 953,1006.85,301.10
2006-02-27 10:00,-12.9,13.6,17.0,1239,1006.67,309.70
2006-02-27 11:00,-12.7,11.0,14.4,1027,1005.65,296.90
2006-02-27 12:00,-12.6,11.1,14.7, 478,1005.17,299.30
2006-02-27 13:00,-12.7,12.1,15.0, 905,1005.29,295.80
2006-02-27 14:00,-12.6,10.2,13.5,1133,1004.69,304.00
2006-02-27 15:00,-11.8,9.8,12.6,1306,1003.85,298.00
2006-02-27 16:00,-10.8,10.2,13.1,2908,1003.43,291.30
2006-02-27 17:00,-9.8,10.5,13.7,2885,1002.65,282.50
2006-02-27 18:00,-8.8,11.9,14.9,2931,1002.35,281.50
2006-02-27 19:00,-8.2,12.0,15.3,2900,1001.87,276.30
2006-02-27 20:00,-7.7,10.7,13.8,2859,1001.39,274.80
2006-02-27 21:00,-7.1,11.2,14.2,2915,1001.51,280.60
2006-02-27 22:00,-6.6,12.0,14.3,2834,1001.75,272.10
2006-02-27 23:00,-6.9,12.0,14.7,2835,1002.53,276.60
2006-02-28 00:00,-6.9,13.4,15.9,2842,1003.37,298.40
2006-02-28 01:00,-7.2,13.5,16.9,2957,1003.91,299.20
2006-02-28 02:00,-7.3,13.1,16.3,2965,1004.57,295.10
2006-02-28 03:00,-7.5,13.1,16.6,2871,1003.97,292.70
2006-02-28 04:00,-7.4,10.8,17.4,2821,1004.33,288.60
2006-02-28 05:00,-7.4,12.1,14.5,2965,1004.99,287.00
2006-02-28 06:00,-7.3,11.3,15.1,2965,1004.39,282.40
2006-02-28 07:00,-7.5,11.4,13.6,2965,1004.57,279.00
2006-02-28 08:00,-7.5,11.4,14.7,2965,1004.33,275.00
2006-02-28 09:00,-7.4,11.7,15.6,2925,1004.33,273.90
2006-02-28 10:00,-7.3,12.4,16.8,2965,1004.63,274.20
2006-02-28 11:00,-7.4,12.8,15.6,2965,1005.17,268.10
2006-02-28 12:00,-7.2,12.3,15.0,2963,1004.51,268.60
2006-02-28 13:00,-7.3,11.7,14.0,2965,1005.05,269.90
2006-02-28 14:00,-7.4,11.4,14.6,2944,1004.21,279.10
2006-02-28 15:00,-7.3,11.3,15.7,2965,1004.45,264.80
2006-02-28 16:00,-6.0,7.1,11.8,2336,,246.60
2006-02-28 17:00,-6.8,9.3,11.9,2937,1002.95,270.20
2006-02-28 18:00,-6.3,9.8,12.3,2943,1002.71,276.10
2006-02-28 19:00,-6.0,8.6,10.7,2962,1002.29,271.90
2006-02-28 20:00,-5.4,8.6,11.1,2963,1002.35,261.70
2006-02-28 21:00,-4.9,8.9,12.0,2964,1002.05,257.50
2006-02-28 22:00,-4.4,8.4,10.7,2965,1001.93,253.20
2006-02-28 23:00,-4.0,7.3,9.1,2963,1002.23,273.20
2006-03-01 00:00,-4.1,8.7,11.2,2965,1002.53,275.70
2006-03-01 01:00,-4.1,8.2,10.5,2965,1002.89,290.70
2006-03-01 02:00,-4.4,7.2,9.5,2965,1002.95,320.50
2006-03-01 03:00,-5.4,9.9,12.0,2964,1003.97,327.60
2006-03-01 04:00,-6.3,9.3,11.8,2965,1004.03,315.20
2006-03-01 05:00,-6.5,8.1,10.7,2964,1003.61,315.00
2006-03-01 06:00,-6.7,8.2,11.2,2965,1003.55,307.60
2006-03-01 07:00,-7.2,7.2,9.5,2965,1003.61,314.30
2006-03-01 08:00,-7.7,6.0,8.3,2965,1004.09,320.10
2006-03-01 09:00,-8.1,8.9,11.4,2965,1005.41,323.90
2006-03-01 10:00,-9.5,8.0,10.8,2963,1006.37,337.60
2006-03-01 11:00,-10.5,8.3,10.5,2963,1007.09,321.10
2006-03-01 12:00,-11.4,8.2,10.1,2960,1007.27,320.40
2006-03-01 13:00,-10.9,9.0,11.6,2455,1007.99,316.40
2006-03-01 14:00,-10.9,9.6,12.3,1805,1008.11,313.50
2006-03-01 15:00,-11.3,7.5,9.6,2429,1007.75,313.60
2006-03-01 16:00,-11.0,7.0,10.0,2818,1007.69,295.00
2006-03-01 17:00,-10.7,7.5,11.0,2381,1007.75,299.00
2006-03-01 18:00,-10.2,6.7,8.9,2805,1007.09,291.60
2006-03-01 19:00,-9.3,5.2,8.6,2937,1006.79,272.50
2006-03-01 20:00,-8.3,5.9,7.4,2966,1006.43,284.80
2006-03-01 21:00,-7.1,6.5,8.3,2965,1006.25,267.10
2006-03-01 22:00,-6.0,6.3,9.1,2965,1006.37,254.60
2006-03-01 23:00,-5.1,5.8,7.9,2965,1006.55,264.80
2006-03-02 00:00,-4.3,6.4,8.7,2965,1006.79,271.70
2006-03-02 01:00,-3.9,6.6,8.9,2965,1006.73,280.70
2006-03-02 02:00,-4.6,4.3,6.1,2965,1006.97,336.80
2006-03-02 03:00,-5.0,5.1,6.6,2965,1006.91,356.68
2006-03-02 04:00,-5.2,5.2,6.8,2965,1007.39,352.93
2006-03-02 05:00,-5.6,4.6,6.3,2964,1007.33,340.70
2006-03-02 06:00,-5.7,4.3,6.4,2965,1007.69,326.60
2006-03-02 07:00,-5.0,3.7,5.1,2965,1007.33,311.00
2006-03-02 08:00,-4.8,2.3,3.6,2965,1007.21,277.80
2006-03-02 09:00,-4.3,1.2,2.7,2965,1007.27,236.40
2006-03-02 10:00,-3.8,2.6,4.6,2965,1007.33,223.70
2006-03-02 12:00,-3.8,2.1,3.9,1988,1006.55,307.40
2006-03-02 13:00,-4.1,1.1,2.2,1754,1006.19,14.61
2006-03-02 14:00,-3.7,2.2,3.1,2750,1005.83,98.80
2006-03-02 15:00,-3.5,4.0,5.2,2176,1005.71,133.80
2006-03-02 16:00,-3.7,4.8,5.8,1314,1005.05,127.30
2006-03-02 17:00,-3.3,5.7,7.2, 853,1004.21,118.60
2006-03-02 18:00,-2.5,6.8,8.4,1145,1002.59,114.90
2006-03-02 19:00,-1.8,6.6,8.7,2326,1001.87,115.80
2006-03-02 20:00,-1.2,5.7,6.8,2462,1001.81,106.50
2006-03-02 21:00,-1.7,6.3,7.4, 250,1001.51,74.60
2006-03-02 22:00,-1.9,9.2,10.5, 322,1001.21,36.49
2006-03-02 23:00,-1.9,9.1,11.0, 653,1001.75,30.60
2006-03-03 00:00,-2.3,10.5,12.5,1326,1002.17,27.60
2006-03-03 01:00,-2.5,9.8,11.7,1143,1002.47,35.82
2006-03-03 02:00,-2.5,8.9,11.1,2717,1002.59,28.92
2006-03-03 03:00,-3.3,8.7,10.1,2924,1003.25,23.83
2006-03-03 04:00,-3.8,8.5,11.2,2925,1003.55,15.66
2006-03-03 05:00,-4.8,8.8,11.2,2919,1003.13,17.85
2006-03-03 06:00,-5.3,9.2,11.1,2936,1003.01,9.24
2006-03-03 07:00,-6.1,8.7,10.4,2950,1002.65,4.69
2006-03-03 08:00,-6.4,9.6,12.1,2934,1002.29,349.77
2006-03-03 09:00,-6.6,9.9,12.0,2924,1002.35,331.10
2006-03-03 10:00,-7.3,9.3,11.4,2935,1002.71,317.10
2006-03-03 11:00,-7.8,10.1,12.9,2948,1002.83,318.40
2006-03-03 12:00,-7.1,10.6,12.7,2802,1002.47,308.20
2006-03-03 13:00,-6.8,11.2,13.6, 983,1002.05,290.10
2006-03-03 14:00,-6.3,11.9,14.3, 956,1000.91,293.50
2006-03-03 15:00,-5.9,11.9,14.9,2211,1000.25,295.50
2006-03-03 16:00,-5.5,9.9,12.8,2077,999.35,287.00
2006-03-03 17:00,-4.7,10.7,13.1,2456,998.27,283.40
2006-03-03 18:00,-3.8,10.4,12.7,2261,997.19,299.20
2006-03-03 19:00,-3.2,8.9,11.2,2913,996.83,279.20
2006-03-03 20:00,-2.6,9.8,11.9,2886,996.65,279.60
2006-03-03 21:00,-2.5,9.9,11.8,2937,997.07,283.10
2006-03-03 22:00,-3.0,10.5,12.7,2940,997.49,300.80
2006-03-03 23:00,-5.0,12.0,14.5,2652,998.81,331.00
2006-03-04 00:00,-5.7,11.2,13.7,2745,999.59,311.20
2006-03-04 01:00,-5.9,9.8,12.1,2898,999.29,307.40
2006-03-04 02:00,-6.1,9.4,11.3,2933,999.11,308.20
2006-03-04 03:00,-5.9,9.9,12.3,2940,999.05,305.20
2006-03-04 04:00,-5.6,9.9,12.3,2948,998.99,310.20
2006-03-04 05:00,-5.4,10.3,13.2,2949,998.57,309.20
2006-03-04 06:00,-5.0,10.0,12.2,2912,998.69,301.60
2006-03-04 07:00,-4.8,10.5,14.0,2879,998.45,303.80
2006-03-04 08:00,-4.7,9.5,13.1,2893,998.63,312.00
2006-03-04 09:00,-4.5,9.6,11.4,2929,999.05,305.60
2006-03-04 10:00,-4.2,9.8,12.0,2884,999.65,311.80
2006-03-04 11:00,-4.0,10.1,12.4,2936,999.95,307.80
2006-03-04 12:00,-3.7,10.0,11.9,2933,1000.49,310.50
2006-03-04 13:00,-3.1,9.4,11.2,2317,1000.55,306.30
2006-03-04 14:00,-2.4,9.4,11.6,2942,1000.91,317.60
2006-03-04 15:00,-1.3,8.9,10.3,2822,1000.61,305.30
2006-03-04 16:00,-0.2,7.9,10.0,2907,1000.85,317.90
2006-03-04 17:00,-0.1,7.8,9.5,2959,1000.97,313.60
2006-03-04 18:00,0.8,7.4,9.3,2730,1000.43,302.00
2006-03-04 19:00,0.9,7.8,9.5,2931,1000.67,312.00
2006-03-04 20:00,0.7,8.5,10.1,2894,1001.09,298.90
2006-03-04 21:00,1.0,8.8,10.3,2913,1002.17,311.80
2006-03-04 22:00,1.0,8.6,10.0,2955,1002.89,294.70
2006-03-04 23:00,0.7,8.7,10.3,2956,1004.39,299.70
2006-03-05 00:00,0.4,9.6,11.6,2927,1005.29,296.00
2006-03-05 01:00,0.1,9.7,12.1,2950,1006.19,306.60
2006-03-05 02:00,-0.4,10.1,12.6,2931,1006.61,308.00
2006-03-05 03:00,-0.4,9.7,11.3,2948,1006.85,307.40
2006-03-05 04:00,-0.6,10.7,14.0,2959,1006.97,308.00
2006-03-05 05:00,-0.8,10.7,13.1,2963,1006.91,303.10
2006-03-05 06:00,-1.0,10.6,12.4,2954,1007.27,305.50
2006-03-05 07:00,-1.2,10.0,12.3,2957,1007.15,306.80
2006-03-05 08:00,-1.2,10.0,12.5,2928,1006.61,307.00
2006-03-05 09:00,-1.3,10.6,13.1,2898,1006.85,305.00
2006-03-05 10:00,-1.4,10.2,11.6,2916,1007.09,304.40
2006-03-05 11:00,-1.6,10.1,12.5,2942,1007.81,311.40
2006-03-05 12:00,-1.6,10.0,12.3,2910,1008.47,306.50
2006-03-05 13:00,-1.9,9.4,11.3,2923,1008.53,303.40
2006-03-05 14:00,-1.4,8.8,11.7,2130,1008.89,311.90
2006-03-05 15:00,-1.2,8.0,9.7,2561,1008.89,314.30
2006-03-05 16:00,-0.4,6.8,8.2,2838,1008.59,301.70
2006-03-05 17:00,0.4,5.9,7.4,2838,1007.99,307.50
2006-03-05 18:00,0.7,7.9,9.6,2898,1007.27,287.60
2006-03-05 19:00,1.4,7.0,8.6,2924,1006.91,275.60
2006-03-05 20:00,2.0,7.6,9.5,2804,1006.73,276.50
2006-03-05 21:00,2.5,7.0,8.4,2962,1006.79,274.00
2006-03-05 22:00,2.6,6.2,8.2,2956,1007.27,278.10
2006-03-05 23:00,2.6,7.2,8.8,2963,1007.69,294.00
2006-03-06 00:00,2.3,7.7,9.2,2961,1008.35,313.00
2006-03-06 01:00,1.1,8.9,10.4,2964,1008.71,313.50
2006-03-06 02:00,-0.4,10.4,12.7,2953,1009.61,317.80
2006-03-06 03:00,-1.3,10.3,12.5,2958,1010.15,325.00
2006-03-06 04:00,-1.7,10.7,12.5,2856,1009.91,320.60
2006-03-06 05:00,-1.7,10.1,12.0,2965,1009.85,320.40
2006-03-06 06:00,-1.7,8.9,10.6,2962,1009.85,313.90
2006-03-06 07:00,-1.6,9.6,11.3,2962,1009.61,316.40
2006-03-06 08:00,-1.5,9.2,11.6,2963,1009.67,318.50
2006-03-06 09:00,-1.3,9.3,11.3,2964,1009.73,321.50
2006-03-06 10:00,-1.3,10.0,11.8,2963,1010.03,324.50
2006-03-06 11:00,-1.2,9.3,11.4,2957,1010.81,326.50
2006-03-06 12:00,-1.1,9.0,10.8,2957,1011.23,331.80
2006-03-06 13:00,-0.9,8.4,10.0,2960,1011.83,337.60
2006-03-06 14:00,-0.7,7.4,9.2,2616,1011.95,330.40
2006-03-06 15:00,-0.2,7.4,9.0,2790,1012.07,348.13
2006-03-06 16:00,0.1,6.3,7.9,2593,1012.07,351.28
2006-03-06 17:00,0.6,4.1,5.8,2689,1012.07,320.70
2006-03-06 18:00,1.2,1.8,3.0,2963,1012.37,322.30
2006-03-06 19:00,2.0,1.7,2.6,2960,1012.37,263.20
2006-03-06 20:00,2.0,3.7,4.2,2962,1012.31,250.70
2006-03-06 21:00,2.5,3.9,4.7,2964,1012.49,233.70
2006-03-06 22:00,2.9,3.4,4.1,2965,1013.03,228.10
2006-03-06 23:00,2.7,3.9,4.4,2965,1013.63,251.70
2006-03-07 00:00,2.3,3.6,4.3,2965,1014.11,269.50
2006-03-07 01:00,2.1,3.8,4.4,2965,1014.77,279.60
2006-03-07 02:00,1.8,4.2,4.7,2965,1015.43,273.90
2006-03-07 03:00,2.0,3.2,3.9,2963,1015.61,303.50
2006-03-07 04:00,2.0,3.9,4.7,2965,1015.79,336.30
2006-03-07 05:00,2.0,5.4,6.1,2965,1015.73,355.17
2006-03-07 06:00,1.7,4.3,5.1,2962,1016.33,347.17
2006-03-07 07:00,1.7,5.3,6.2,2963,1015.97,18.42
2006-03-07 08:00,1.3,6.2,7.5,2965,1015.91,27.21
2006-03-07 09:00,0.9,5.8,6.8,2965,1016.21,28.64
2006-03-07 10:00,0.5,5.7,6.6,2963,1016.69,24.64
2006-03-07 11:00,0.1,5.7,6.8,2964,1017.29,23.87
2006-03-07 12:00,-0.0,5.6,6.6,2962,1017.95,31.24
2006-03-07 13:00,-0.3,6.1,7.1,2959,1018.49,31.22
2006-03-07 14:00,0.1,5.7,6.7,2958,1018.61,45.15
2006-03-07 15:00,0.5,4.4,5.3,2959,1019.09,49.71
2006-03-07 16:00,0.7,2.9,4.2,2871,1019.33,41.81
2006-03-07 17:00,1.3,1.9,2.8,2941,1019.09,45.80
2006-03-07 18:00,2.2,1.1,1.8,2934,1018.73,18.28
2006-03-07 19:00,2.5,0.8,1.1,2938,1018.31,41.22
2006-03-07 20:00,3.0,0.6,1.0,2947,1018.25,93.10
2006-03-07 21:00,2.4,1.5,2.0,2927,1017.89,125.60
2006-03-07 22:00,3.7,0.5,1.2,2100,1017.89,157.40
2006-03-07 23:00,2.7,1.6,2.2,2963,1018.37,217.30
2006-03-08 00:00,2.8,2.3,2.8,2965,1018.73,241.30
2006-03-08 01:00,2.4,2.7,3.1,2965,1019.03,259.30
2006-03-08 02:00,2.5,3.0,3.5,2965,1019.21,274.00
2006-03-08 03:00,1.6,4.0,4.6,2964,1019.45,300.30
2006-03-08 04:00,1.6,4.0,4.7,2962,1019.09,308.00
2006-03-08 05:00,1.9,5.6,6.5,2965,1018.79,341.20
2006-03-08 06:00,0.9,7.6,8.9,2964,1019.03,353.32
2006-03-08 07:00,0.1,8.3,10.7,2965,1018.91,355.89
2006-03-08 08:00,-0.3,8.1,9.8,2964,1018.73,359.29
2006-03-08 09:00,-0.9,8.7,10.5,2962,1019.09,349.45
2006-03-08 10:00,-1.4,7.9,9.3,2963,1019.51,349.34
2006-03-08 11:00,-1.9,8.4,9.7,2963,1019.51,347.85
2006-03-08 12:00,-2.2,7.8,9.5,2922,1019.33,351.24
2006-03-08 13:00,-2.3,7.4,9.0,2862,1019.15,355.62
2006-03-08 14:00,-2.3,6.5,7.6,2401,1019.03,355.60
2006-03-08 15:00,-1.8,6.5,8.1,2841,1018.43,355.21
2006-03-08 16:00,-1.3,3.2,5.3,2795,1017.95,331.00
2006-03-08 17:00,-0.8,2.7,4.0,2915,1017.23,347.94
2006-03-08 18:00,-0.0,2.3,3.5,2934,1016.21,328.00
2006-03-08 19:00,0.6,1.6,2.3,2955,1015.79,297.70
2006-03-08 20:00,1.9,0.4,0.9,2948,1015.37,216.10
2006-03-08 21:00,2.1,1.4,2.2,2598,1015.07,263.40
2006-03-08 22:00,2.5,4.5,5.2,2956,1015.43,340.00
2006-03-08 23:00,2.7,4.3,5.5,2965,1015.49,337.40
2006-03-09 00:00,2.7,4.0,4.7,2965,1016.21,335.00
2006-03-09 01:00,2.3,5.7,7.0,2965,1016.87,28.05
2006-03-09 02:00,1.4,6.3,8.3,2963,1017.65,16.27
2006-03-09 03:00,0.4,6.0,7.0,2965,1017.65,26.05
2006-03-09 04:00,-0.1,5.8,6.7,2965,1018.13,28.72
2006-03-09 05:00,-0.9,5.4,7.1,2965,1018.49,34.62
2006-03-09 06:00,-1.4,4.8,6.0,2965,1018.67,32.75
2006-03-09 07:00,-1.7,5.4,6.5,2965,1018.85,29.18
2006-03-09 08:00,-1.8,4.6,5.5,2963,1019.21,32.48
2006-03-09 09:00,-2.2,4.3,5.6,2964,1019.69,37.23
2006-03-09 10:00,-2.2,4.1,5.5,2965,1020.35,31.10
2006-03-09 11:00,-2.2,4.1,5.3,2619,1020.41,48.62
2006-03-09 12:00,-1.9,4.1,5.0,2964,1020.53,51.92
2006-03-09 13:00,-1.6,4.1,5.3,2963,1020.83,76.30
2006-03-09 14:00,-1.1,3.6,4.9,2948,1021.19,78.80
2006-03-09 15:00,-0.3,2.5,3.6,2957,1022.21,91.30
2006-03-09 16:00,-0.0,3.7,4.9,2937,1021.91,99.60
2006-03-09 17:00,0.6,3.7,4.6,2933,1021.37,122.20
2006-03-09 18:00,0.8,4.3,5.4,2957,1020.17,140.80
2006-03-09 19:00,1.2,4.1,5.3,2955,1020.41,158.00
2006-03-09 20:00,1.6,5.0,6.0,2963,1020.11,169.10
2006-03-09 21:00,2.0,5.1,5.9,2958,1020.83,182.80
2006-03-09 22:00,2.3,6.5,8.0,2959,1020.11,168.30
2006-03-09 23:00,2.7,7.3,8.8,2961,1020.05,167.70
2006-03-10 00:00,1.1,7.7,8.9, 953,1020.35,165.90
2006-03-10 01:00,1.1,8.7,10.1,1751,1019.27,149.00
2006-03-10 02:00,1.2,9.8,11.3,1481,1019.15,149.90
2006-03-10 03:00,1.7,9.7,11.6,2749,1018.43,151.70
2006-03-10 04:00,2.3,10.1,12.4,2818,1018.49,161.80
2006-03-10 05:00,2.4,10.2,12.0,2853,1017.35,151.80
2006-03-10 06:00,2.8,11.7,14.1,2640,1015.91,148.60
2006-03-10 07:00,3.0,12.5,15.2,2359,1014.23,153.10
2006-03-10 08:00,3.5,11.9,14.8,2684,1013.15,152.80
2006-03-10 09:00,3.9,11.9,14.6,2560,1011.95,152.40
2006-03-10 10:00,4.4,10.4,12.4,2431,1011.35,154.80
2006-03-10 11:00,4.9,9.7,12.1,2341,1010.03,155.30
2006-03-10 12:00,5.1,8.4,9.6,2116,1009.91,164.10
2006-03-10 13:00,5.3,7.4,9.0,1837,1008.65,169.00
2006-03-10 14:00,5.6,7.8,9.1,1651,1007.33,170.60
2006-03-10 15:00,5.9,8.9,10.9,1463,1006.01,176.80
2006-03-10 16:00,6.1,8.3,10.5,1681,1005.05,182.00
2006-03-10 17:00,6.3,9.2,11.1,1796,1004.03,177.80
2006-03-10 18:00,6.3,9.8,12.3,1490,1002.35,198.60
2006-03-10 19:00,6.3,9.4,11.5,1620,1002.05,202.30
2006-03-10 20:00,6.3,10.3,12.3,1645,1001.87,208.20
2006-03-10 21:00,5.9,9.6,11.7, 315,1001.57,211.20
2006-03-10 22:00,5.6,8.3,9.8, 313,1001.63,210.40
2006-03-10 23:00,5.1,5.9,7.2, 195,1001.93,227.70
2006-03-11 00:00,4.8,7.9,9.4, 241,1001.99,228.50
2006-03-11 01:00,4.7,7.8,9.4, 278,1001.75,216.90
2006-03-11 02:00,4.9,7.4,9.2,1808,1001.75,219.00
2006-03-11 03:00,4.6,4.8,6.0,1981,1002.65,288.90
2006-03-11 04:00,4.9,6.2,7.4,2094,1003.67,251.20
2006-03-11 05:00,5.0,7.1,8.9,2159,1004.33,261.20
2006-03-11 06:00,5.5,6.2,7.1,2735,1005.83,280.50
2006-03-11 07:00,6.5,7.3,9.3,2887,1007.39,280.10
2006-03-11 08:00,5.6,9.9,12.0,2917,1008.17,288.00
2006-03-11 09:00,4.9,6.2,10.0,2912,1009.49,280.30
2006-03-11 10:00,4.5,5.9,8.1,2863,1011.05,275.70
2006-03-11 11:00,4.6,7.3,9.7,2869,1012.13,293.50
2006-03-11 12:00,4.5,7.7,10.2,2794,1013.15,294.20
2006-03-11 13:00,4.8,10.0,13.1,2886,1014.11,308.30
2006-03-11 14:00,4.7,7.7,10.1,2642,1015.13,304.10
2006-03-11 15:00,5.2,9.4,11.9,2442,1015.07,308.30
2006-03-11 16:00,5.4,9.9,12.4,2799,1014.95,312.10
2006-03-11 17:00,5.8,9.6,11.1,2266,1014.95,300.20
2006-03-11 18:00,5.9,8.3,11.1,2927,1014.47,301.10
2006-03-11 19:00,6.0,8.6,10.4,2566,1015.01,296.80
2006-03-11 20:00,6.3,10.5,12.1,2801,1016.27,292.00
2006-03-11 21:00,6.0,6.9,9.4,2251,1017.29,294.20
2006-03-11 22:00,6.0,5.7,7.2,2826,1018.13,288.50
2006-03-11 23:00,5.6,5.1,6.2,2953,1019.27,295.40
2006-03-12 00:00,5.1,4.2,4.9,2956,1019.93,263.30
2006-03-12 01:00,4.7,3.8,4.6,2946,1020.23,252.20
2006-03-12 02:00,4.2,4.3,4.7,2948,1020.41,256.00
2006-03-12 03:00,4.7,4.9,5.9,2957,1020.77,263.50
2006-03-12 04:00,4.0,5.4,6.2,2941,1021.01,260.30
2006-03-12 05:00,4.1,4.9,5.8,2956,1021.85,254.80
2006-03-12 06:00,4.1,5.6,6.5,2957,1021.97,258.20
2006-03-12 07:00,4.0,4.2,5.2,2936,1022.15,245.20
2006-03-12 08:00,4.4,4.5,5.4,2950,1022.33,251.30
2006-03-12 09:00,4.0,4.4,5.0,2955,1022.39,261.00
2006-03-12 10:00,3.8,1.8,3.4,2941,1022.27,262.00
2006-03-12 11:00,4.0,2.4,2.7,2953,1022.03,255.20
2006-03-12 12:00,4.2,2.8,3.6,2914,1021.91,213.00
2006-03-12 13:00,4.2,3.8,4.8,2932,1021.55,196.30
2006-03-12 14:00,4.4,3.6,4.4,2887,1021.49,178.50
2006-03-12 15:00,4.6,4.0,4.7,2928,1020.53,190.60
2006-03-12 16:00,4.8,5.7,6.8,2892,1020.05,207.50
2006-03-12 17:00,4.7,6.1,7.1,2899,1018.73,199.60
2006-03-12 18:00,5.0,5.9,6.9,2855,1016.81,191.80
2006-03-12 19:00,5.2,7.6,9.1,2868,1014.95,188.20
2006-03-12 20:00,5.7,9.0,10.7,2757,1013.57,203.20
2006-03-12 21:00,5.7,8.9,11.9,2716,1012.37,205.10
2006-03-12 22:00,5.7,11.4,13.3,1348,1012.19,226.70
2006-03-12 23:00,4.8,8.1,11.0,1510,1012.91,239.80
2006-03-13 00:00,4.6,7.6,9.5,2107,1011.83,235.00
2006-03-13 01:00,4.8,9.2,10.7,2292,1010.33,223.30
2006-03-13 02:00,4.7,7.3,8.9,2352,1010.63,238.80
2006-03-13 03:00,4.4,7.1,8.5,2300,1009.97,236.90
2006-03-13 04:00,4.2,7.4,8.7,2362,1010.03,251.70
2006-03-13 05:00,3.9,5.1,6.8,2300,1009.79,255.90
2006-03-13 06:00,3.8,2.6,4.3,2250,1009.97,256.20
2006-03-13 07:00,3.6,2.1,2.7,2146,1010.87,263.40
2006-03-13 08:00,3.5,2.3,2.9,2169,1010.75,249.70
2006-03-13 09:00,3.8,3.4,4.7,2449,1011.11,241.00
2006-03-13 10:00,4.3,3.3,3.8,2710,1012.13,241.10
2006-03-13 11:00,4.2,3.0,3.5,2743,1012.01,244.10
2006-03-13 12:00,4.3,2.7,3.6,2780,1012.13,233.20
2006-03-13 13:00,4.7,3.3,4.0,2835,1012.25,230.50
2006-03-13 14:00,4.4,2.8,4.0,2742,1012.01,228.90
2006-03-13 15:00,4.6,3.2,4.0,2760,1011.83,249.60
2006-03-13 16:00,4.9,2.2,2.5,2730,1011.17,223.60
2006-03-13 17:00,5.5,2.7,3.2,2842,1011.05,210.70
2006-03-13 18:00,5.2,3.7,4.2,2766,1010.75,218.80
2006-03-13 19:00,5.0,2.5,3.3,2744,1010.45,220.90
2006-03-13 20:00,5.1,1.9,2.7,2800,1010.15,216.10
2006-03-13 21:00,4.6,0.0,0.7,1811,1010.03,
2006-03-13 22:00,4.4,2.7,3.1,2081,1009.07,159.60
2006-03-13 23:00,4.6,3.3,3.9,1892,1009.19,176.90
2006-03-14 00:00,4.9,4.3,5.3,2566,1009.01,175.30
2006-03-14 01:00,4.8,4.9,5.6,2747,1007.45,150.40
2006-03-14 02:00,4.8,5.6,6.7,2844,1006.61,137.90
2006-03-14 03:00,5.1,6.0,7.1,2878,1006.01,133.80
2006-03-14 04:00,5.8,6.4,7.2,2918,1005.89,132.70
2006-03-14 05:00,4.8,6.3,7.4,2000,1004.81,121.70
2006-03-14 06:00,4.5,6.7,7.7,1724,1004.21,110.70
2006-03-14 07:00,4.3,10.2,12.3,1210,1002.23,125.60
2006-03-14 08:00,4.5,11.5,15.1,2417,1000.13,134.90
2006-03-14 09:00,4.5,5.7,8.6,2380,1000.49,87.00
2006-03-14 10:00,4.3,6.8,7.9,2301,999.29,89.80
2006-03-14 11:00,4.3,5.3,6.4,2181,999.53,91.10
2006-03-14 12:00,4.2,6.0,7.3,1832,998.57,100.60
2006-03-14 13:00,4.0,7.8,9.2,1221,996.83,89.40
2006-03-14 14:00,4.0,7.2,8.8,1183,995.21,101.70
2006-03-14 15:00,4.0,9.4,11.9,1188,992.21,105.50
2006-03-14 16:00,4.3,9.8,11.7,1872,991.49,127.30
2006-03-14 17:00,4.4,1.5,7.1,1694,991.79,204.50
2006-03-14 18:00,4.5,3.9,9.0,1453,,206.40
2006-03-14 19:00,4.4,3.1,4.8,1746,989.81,212.10
2006-03-14 20:00,4.1,3.5,4.4,1681,989.75,261.80
2006-03-14 21:00,3.9,4.7,5.5,1821,990.17,246.80
2006-03-14 22:00,4.1,5.1,5.9,2821,991.07,258.70
2006-03-14 23:00,4.4,4.1,4.9,2800,991.91,284.10
2006-03-15 00:00,4.7,4.6,5.6,2122,992.81,270.20